Location: Tamazert
(32.6352°N, 5.2072°W)
Time: 16:12:49
(UTC+00:00)

CZ-2D R/B - Pass Details

Date: 22 May 2022
Orbit: 790 x 845 km, 98.7° (Epoch: 06 July)

Event Time Altitude Azimuth Distance (km) Brightness Sun altitude
Rises 00:42:41 0° 34° (NNE) 3,364 6.1 -36.7°
Reaches altitude 10° 00:45:53 10° 53° (NE) 2,415 5.0 -36.6°
Enters shadow 00:47:28 15° 69° (ENE) 2,091 4.5 -36.5°
